User: anonymous   Login
Location: Unspecified
(0.0000°N, 0.0000°E)
Time: 02:15:31
(UTC+00:00)
Language:

USA 236 - Orbit

View from above orbital plane
View from above orbital plane
View from above satellite
View from above satellite

Ground track
Ground track

The orbit data is extracted from the following two-line orbital elements,

1 38466U 12033A   23059.89446220 0.00000000  00000-0  00000-0 0    03
2 38466   4.8752  96.6159 0004263 176.2274 183.7726  1.00270000    09
Epoch (UTC): 28 February 2023 21:28:01
Eccentricity: 0.0004263
inclination: 4.8752°
perigee height: 35769 km
apogee height: 35804 km
right ascension of ascending node: 96.6159°
argument of perigee: 176.2274°
revolutions per day: 1.00270000
mean anomaly at epoch: 183.7726°
orbit number at epoch: 0

The dashed part of the orbit path shows where the satellite is in the earth's shadow,  

DLR